[[{"header":{"parameterUnit":"m.s-1","parameterCategory":1,"la1":30.2991,"la2":30.254,"lo1":-89.0895,"lo2":-89.0444,"dy":0.0017,"dx":0.0017,"nx":28,"ny":28,"refTime":"2024-03-02T03:00:00:Z","depth":0,"parameterNumber":2,"parameterNumberName":"U-component_of_WINDS"},"data":[0,0,0,0,0,0,0,0,0,0,0,0,0,0,0,0,0,0,0,0,0,0,0,0,0,0,0,0,0,0,0,0,0,0,0,0,0,0,0,0,0,0,0,0,0,0,0,0,0,0,0,0,0,0,0,0,0,0,-3.7399,-3.74,0,-3.7513,-3.7514,-3.7516,-3.7473,-3.7471,-3.7468,-3.7466,-3.7584,-3.7589,-3.7595,0,0,0,0,0,0,0,0,0,0,0,0,0,-3.7146,-3.7151,-3.7399,-3.74,-3.7402,-3.7513,-3.7514,-3.7516,-3.7474,-3.7471,-3.7467,-3.7464,-3.7582,-3.7589,-3.7595,0,0,0,0,0,0,0,0,0,0,0,0,0,-3.7258,-3.7152,-3.7398,-3.7394,-3.7395,-3.7513,-3.7514,-3.7516,-3.7474,-3.747,-3.7467,-3.7463,-3.758,-3.7588,-3.7596,-3.7726,0,0,-3.7622,-3.7625,0,0,0,0,0,0,0,0,-3.7251,-3.7267,-3.7393,-3.7394,-3.7395,-3.7475,-3.7469,-3.7587,-3.7475,-3.7444,-3.7465,-3.7461,-3.7551,-3.7561,-3.7591,-3.7731,-3.7736,-3.7622,-3.7628,-3.7631,-3.7634,0,0,0,0,0,0,0,-3.7244,-3.7262,-3.7444,-3.7395,-3.7396,-3.7387,-3.7398,-3.7491,-3.7518,-3.7447,-3.7444,-3.7458,-3.7551,-3.7583,-3.7594,-3.7738,-3.7622,-3.763,-3.7635,-3.7638,-3.7992,-3.7996,0,0,0,0,0,0,-3.7235,-3.7255,-3.744,-3.7447,-3.7312,-3.7394,-3.7407,-3.7453,-3.7517,-3.7523,-3.7461,-3.7455,-3.7571,-3.7584,-3.7598,-3.7754,-3.7631,-3.7639,-3.7644,-3.7987,-3.7993,-3.7997,0,0,0,0,0,0,-3.723,-3.7252,-3.7436,-3.7351,-3.7373,-3.7403,-3.7455,-3.7458,-3.749,-3.7528,-3.7533,-3.7489,-3.7568,-3.7586,-3.7694,-3.7757,-3.7643,-3.765,-3.7982,-3.7989,-3.7995,-3.8067,0,0,0,0,0,0,-3.7223,-3.725,-3.7299,-3.7352,-3.7378,-3.753,-3.7459,-3.7463,-3.7505,-3.7498,-3.7556,-3.7561,-3.7567,-3.7682,-3.7703,-3.7767,-3.7657,-3.7977,-3.7985,-3.7993,-3.8059,-3.8076,-3.8089,0,0,0,0,0,-3.7214,-3.7315,-3.7302,-3.7324,-3.744,-3.7534,-3.7548,-3.7552,-3.751,-3.756,-3.7584,-3.7559,-3.7748,-3.7694,-3.7716,-3.7784,-3.7973,-3.7983,-3.7992,-3.8053,-3.8072,-3.8089,0,0,0,0,0,0,-3.7269,-3.7322,-3.7308,-3.7429,-3.7477,-3.7526,-3.7589,-3.7573,-3.7634,-3.7626,-3.7629,-3.7642,-3.7754,-3.778,-3.7719,-3.7914,-3.7854,-3.7869,-3.7892,-3.7911,-3.7926,-3.7917,-3.7664,0,0,0,0,0,-3.7295,-3.7366,-3.7409,-3.7512,-3.7537,-3.7559,-3.76,-3.7599,-3.7649,-3.7669,-3.7701,-3.7751,-3.7822,-3.7868,-3.7935,-3.8064,-3.8076,-3.8122,-3.8137,-3.8149,-3.8161,-3.8232,-3.8253,-3.803,-3.803,-3.8029,0,0,-3.735,-3.7387,-3.7432,-3.7524,-3.7561,-3.7635,-3.7576,-3.7657,-3.7712,-3.7682,-3.7786,-3.7812,-3.7868,-3.7987,-3.8041,-3.8012,-3.8226,-3.8161,-3.8171,-3.8177,-3.8244,-3.8265,-3.8284,-3.8036,-3.8035,-3.8034,0,0,-3.7487,-3.7523,-3.7613,-3.7652,-3.7709,-3.7723,-3.7745,-3.7797,-3.7813,-3.7918,-3.7896,-3.7963,-3.8084,-3.8125,-3.8162,-3.8317,-3.8297,-3.8339,-3.8417,-3.8486,-3.8503,-3.8519,-3.8574,-3.8594,-3.8352,-3.8352,-3.8352,0,-3.7548,-3.7658,-3.7661,-3.7744,-3.7785,-3.7761,-3.7853,-3.7891,-3.7967,-3.7996,-3.7963,-3.8115,-3.8151,-3.828,-3.8318,-3.8349,-3.8374,-3.8332,-3.8501,-3.8516,-3.8531,-3.8584,-3.8605,-3.8357,-3.8356,-3.8356,-3.8355,0,-3.773,-3.7807,-3.7873,-3.7948,-3.7997,-3.8083,-3.81,-3.815,-3.8145,-3.8164,-3.8271,-3.8314,-3.839,-3.842,-3.8417,-3.855,-3.853,-3.8499,-3.8439,-3.8557,-3.8606,-3.8627,-3.8363,-3.8362,-3.836,-3.8359,0,0,-3.7903,-3.7979,-3.8003,-3.8037,-3.8099,-3.8159,-3.8246,-3.832,-3.8362,-3.8417,-3.849,-3.8594,-3.8566,-3.8608,-3.8609,-3.8669,-3.879,-3.8631,-3.8632,-3.8659,-3.894,-3.8962,-3.8985,-3.8778,-3.8782,-3.8785,-3.8935,0,-3.8045,-3.8196,-3.8202,-3.834,-3.8412,-3.8392,-3.8467,-3.8514,-3.8534,-3.8599,-3.8621,-3.8695,-3.8652,-3.8678,-3.8737,-3.8763,-3.8847,-3.8752,-3.8846,-3.8849,-3.8831,-3.9011,-3.9035,-3.9174,-3.8954,-3.8958,-3.896,0,-3.823,-3.829,-3.8436,-3.8489,-3.8519,-3.8587,-3.8656,-3.8718,-3.8771,-3.8782,-3.8829,-3.8822,-3.8912,-3.885,-3.8974,-3.891,-3.8949,-3.8968,-3.8973,-3.8981,-3.8911,-3.9024,-3.9218,-3.9239,-3.8991,-3.8988,-3.8986,0,-3.8341,-3.8459,-3.8561,-3.8591,-3.8655,-3.8704,-3.8733,-3.8783,-3.8827,-3.8888,-3.8917,-3.8987,-3.9026,-3.9081,-3.9094,-3.9047,-3.9218,-3.9157,-3.9229,-3.9229,-3.9265,-3.9262,-3.9468,-3.9292,-3.9292,-3.9291,-3.9291,0,-3.8498,-3.8588,-3.8612,-3.8675,-3.8775,-3.8782,-3.8882,-3.8908,-3.8952,-3.9021,-3.9008,-3.9072,-3.9085,-3.9153,-3.9164,-3.9265,-3.9283,-3.9294,-3.9295,-3.9295,-3.9293,-3.9319,-3.931,-3.9297,-3.9296,-3.9295,-3.9294,0,-3.8639,-3.8658,-3.8768,-3.8821,-3.8837,-3.8908,-3.8954,-3.9015,-3.9034,-3.9121,-3.9141,-3.9172,-3.9251,-3.927,-3.9364,-3.9371,-3.9491,-3.9483,-3.9472,-3.9472,-3.9543,-3.9536,-3.9772,-3.9803,-3.9607,-3.9609,-3.9611,0,-3.8737,-3.8805,-3.8866,-3.8911,-3.8942,-3.9014,-3.906,-3.9071,-3.9119,-3.9186,-3.9239,-3.9316,-3.9379,-3.9506,-3.9537,-3.961,-3.9604,-3.9682,-3.9614,-3.9612,-3.9604,-3.96,-3.9607,-3.9694,-3.9696,-3.9698,-3.9699,0,-3.8909,-3.8916,-3.8982,-3.9052,-3.9107,-3.9162,-3.9215,-3.9253,-3.9271,-3.9326,-3.9407,-3.9455,-3.9552,-3.9629,-3.9702,-3.9733,-3.972,-3.972,-3.9741,-3.974,-3.9731,-3.9736,-3.9507,-3.9714,-3.9713,-3.9712,-3.9711,-3.971,-3.9031,-3.9091,-3.9144,-3.9218,-3.9259,-3.931,-3.937,-3.9397,-3.9464,-3.9543,-3.9546,-3.9634,-3.9688,-3.9784,-3.982,-3.989,-3.9866,-3.9896,-3.9903,-3.991,-3.9916,-3.9721,-3.9903,-3.9903,-3.9902,-3.9902,-3.9902,0,-3.9202,-3.9235,-3.9304,-3.9379,-3.9438,-3.942,-3.9479,-3.9529,-3.9607,-3.9658,-3.972,-3.9813,-3.9889,-3.9927,-4.0002,-4.0051,-4.0046,-4.007,-4.0066,-4.0074,-3.9933,-3.9908,-4.0072,-4.0072,-4.0072,-4.0072,-4.0072,-4.0072,-3.9298,-3.9399,-3.9413,-3.9535,-3.9568,-3.9654,-3.9689,-3.9735,-3.9776,-3.9881,-3.9944,-3.9968,-4.0015,-4.0093,-4.0162,-4.0172,-4.02,-4.0226,-4.0233,-4.0101,-4.0083,-4.0067,-4.0043,-4.0233,-4.0233,-4.0367,-4.0368,-4.0369]},{"header":{"parameterUnit":"m.s-1","parameterCategory":1,"la1":30.2991,"la2":30.254,"lo1":-89.0895,"lo2":-89.0444,"dy":0.0017,"dx":0.0017,"nx":28,"ny":28,"refTime":"2024-03-02T03:00:00:Z","depth":0,"parameterNumber":3,"parameterNumberName":"V-component_of_WINDS"},"data":[0,0,0,0,0,0,0,0,0,0,0,0,0,0,0,0,0,0,0,0,0,0,0,0,0,0,0,0,0,0,0,0,0,0,0,0,0,0,0,0,0,0,0,0,0,0,0,0,0,0,0,0,0,0,0,0,0,0,0.9548,0.9549,0,0.9627,0.9628,0.9629,0.9673,0.9673,0.9673,0.9673,0.975,0.9751,0.9753,0,0,0,0,0,0,0,0,0,0,0,0,0,0.9432,0.9433,0.9548,0.9549,0.955,0.9627,0.9628,0.9629,0.9673,0.9673,0.9673,0.9673,0.9749,0.9751,0.9753,0,0,0,0,0,0,0,0,0,0,0,0,0,0.9493,0.9434,0.9548,0.9581,0.9585,0.9627,0.9628,0.9629,0.9673,0.9673,0.9673,0.9673,0.9748,0.9751,0.9754,0.9767,0,0,0.9763,0.9764,0,0,0,0,0,0,0,0,0.949,0.9498,0.9575,0.9579,0.9583,0.964,0.9615,0.9676,0.9673,0.9639,0.9673,0.9673,0.9713,0.9719,0.9733,0.9771,0.9774,0.9763,0.9765,0.9766,0.9767,0,0,0,0,0,0,0,0.9485,0.9494,0.9579,0.9576,0.9581,0.9591,0.96,0.9627,0.9674,0.9642,0.9645,0.9654,0.9715,0.973,0.9735,0.9775,0.9763,0.9765,0.9767,0.9768,0.983,0.983,0,0,0,0,0,0,0.9476,0.9491,0.9577,0.9581,0.9536,0.9593,0.9603,0.9622,0.9674,0.9682,0.9654,0.9656,0.9725,0.9731,0.9738,0.9758,0.9766,0.9768,0.977,0.983,0.983,0.983,0,0,0,0,0,0,0.9474,0.9484,0.9573,0.9537,0.9549,0.9595,0.9615,0.9623,0.9638,0.9683,0.9691,0.9661,0.9725,0.9734,0.976,0.9761,0.977,0.9772,0.983,0.983,0.983,0.9798,0,0,0,0,0,0,0.947,0.9482,0.9488,0.9537,0.9551,0.9595,0.9615,0.9624,0.9644,0.9647,0.9691,0.9699,0.9726,0.9756,0.9763,0.9766,0.9775,0.9831,0.983,0.983,0.98,0.9797,0.9795,0,0,0,0,0,0.9466,0.9475,0.9489,0.9499,0.956,0.9595,0.9603,0.9636,0.9643,0.965,0.9679,0.9697,0.976,0.9758,0.9767,0.977,0.9831,0.983,0.983,0.9801,0.9798,0.9795,0,0,0,0,0,0,0.9423,0.9482,0.9498,0.9523,0.9554,0.9603,0.9612,0.9632,0.966,0.9662,0.9699,0.9709,0.9732,0.9754,0.9751,0.9787,0.9797,0.9799,0.9772,0.977,0.9767,0.9762,0.9777,0,0,0,0,0,0.9417,0.9443,0.9492,0.9509,0.9525,0.9565,0.9582,0.9605,0.9638,0.9651,0.9681,0.9712,0.9739,0.9755,0.9782,0.9803,0.9814,0.981,0.9807,0.9805,0.9806,0.982,0.9819,0.983,0.983,0.983,0,0,0.9404,0.9439,0.9453,0.9502,0.9529,0.9553,0.9576,0.96,0.9619,0.9654,0.9682,0.9705,0.9742,0.9766,0.9778,0.9785,0.9806,0.9805,0.9803,0.9805,0.982,0.9819,0.9818,0.983,0.983,0.983,0,0,0.9393,0.9422,0.9441,0.9468,0.951,0.9537,0.9542,0.9588,0.9606,0.9635,0.9662,0.9684,0.9729,0.9754,0.9773,0.9774,0.9792,0.9781,0.977,0.9783,0.9782,0.9781,0.9782,0.9782,0.9782,0.9782,0.9782,0,0.9372,0.9411,0.9448,0.9472,0.9493,0.9528,0.9547,0.9571,0.9618,0.9631,0.9638,0.9697,0.9724,0.9755,0.9756,0.9769,0.9775,0.9776,0.9779,0.9779,0.9779,0.9781,0.9781,0.978,0.9781,0.9781,0.9781,0,0.9383,0.9409,0.9419,0.9467,0.9489,0.951,0.9549,0.9567,0.9588,0.9615,0.9644,0.9678,0.9713,0.9722,0.9742,0.9757,0.976,0.9772,0.9784,0.9776,0.9778,0.9779,0.9778,0.9779,0.9779,0.978,0,0,0.9345,0.9415,0.9418,0.944,0.9489,0.951,0.9533,0.957,0.9585,0.9616,0.9636,0.9675,0.9688,0.9709,0.9732,0.9744,0.9743,0.9755,0.9757,0.9752,0.9762,0.9752,0.9752,0.9756,0.9757,0.9757,0.976,0,0.9342,0.9386,0.9421,0.9452,0.9478,0.9513,0.9533,0.9565,0.959,0.9615,0.9643,0.967,0.9685,0.9698,0.9711,0.9741,0.9746,0.9741,0.9775,0.9775,0.9765,0.9753,0.9743,0.9744,0.976,0.9761,0.9761,0,0.9343,0.9376,0.941,0.9459,0.9471,0.9488,0.9525,0.9549,0.9586,0.9604,0.9629,0.9654,0.9679,0.9689,0.9724,0.972,0.9736,0.9753,0.9754,0.9758,0.9767,0.9757,0.9745,0.9745,0.9762,0.9762,0.9762,0,0.9313,0.9366,0.9394,0.9412,0.9469,0.9481,0.9505,0.9542,0.9562,0.9594,0.9608,0.9642,0.966,0.9685,0.9718,0.9722,0.975,0.9762,0.9766,0.9765,0.9769,0.9769,0.9759,0.978,0.9779,0.9779,0.9779,0,0.9305,0.9325,0.9382,0.9399,0.9422,0.9462,0.9483,0.951,0.9543,0.9566,0.9597,0.9617,0.966,0.9685,0.9711,0.9737,0.9744,0.9759,0.9766,0.9757,0.9755,0.9767,0.9768,0.978,0.978,0.978,0.978,0,0.9275,0.9314,0.9347,0.9399,0.9413,0.9428,0.9472,0.949,0.9518,0.9546,0.9555,0.9599,0.9631,0.9667,0.9709,0.9726,0.975,0.976,0.9738,0.9742,0.9744,0.9743,0.9742,0.9744,0.9762,0.9762,0.9762,0,0.9268,0.9284,0.9339,0.9358,0.9382,0.941,0.9432,0.9472,0.9493,0.9538,0.955,0.9584,0.9614,0.9662,0.9697,0.973,0.9741,0.9738,0.9746,0.9736,0.9741,0.974,0.9742,0.9736,0.9735,0.9735,0.9735,0,0.925,0.9269,0.93,0.9339,0.9364,0.9396,0.9428,0.9441,0.9487,0.9509,0.9543,0.9566,0.9611,0.9645,0.9683,0.9706,0.9728,0.9732,0.9735,0.9725,0.9713,0.972,0.9733,0.9732,0.9732,0.9732,0.9733,0.9733,0.9232,0.9249,0.9291,0.9324,0.9354,0.9384,0.9404,0.9436,0.9466,0.9507,0.9528,0.9562,0.96,0.9653,0.9676,0.9703,0.971,0.9713,0.9714,0.9714,0.9712,0.9709,0.9709,0.971,0.971,0.971,0.971,0,0.9216,0.9246,0.9277,0.9323,0.9349,0.937,0.9408,0.9428,0.9458,0.9493,0.9522,0.9561,0.9595,0.9633,0.9669,0.9683,0.9694,0.9691,0.969,0.9695,0.9703,0.9698,0.9681,0.9681,0.9681,0.9681,0.9681,0.9681,0.9211,0.9241,0.9266,0.9311,0.934,0.9375,0.9395,0.9423,0.9451,0.9494,0.9523,0.9549,0.9585,0.9624,0.9656,0.9666,0.9678,0.9672,0.9685,0.9692,0.9694,0.9697,0.9692,0.9674,0.9674,0.9675,0.9675,0.9675]}]]